Αρχική σελίδα
METAR-TAF:

METAR-TAF

Αεροδρόμια :

Jim Kelly Field

Lexington, Νεμπράσκα, Ηνωμένες Πολιτείες Αμερικής

γεωγραφικό πλάτος: 40-47-28N, γεωγραφικό μήκος: 099-46-38W, υψόμετρο: 736 μ

Παρών καιρός

Η αναφορά έγινε 16 λεπτά πριν, στις 15:15 UTC
Άνεμος 5 kt από ΝA
Θερμοκρασία 1°C
Υγρασία 75%
Πίεση 1030 hPa
Ορατότητα: 16.1 χλμ
Καθαρός ουρανός

METAR: KLXN 181515Z AUTO 14005KT 10SM CLR 01/M03 A3042 RMK AO2 T00081034

Χρόνος: 10:31 (15:31 UTC)


TAF: λείπει

Μετεωρολογικές αναφορές και προγνώσεις για περισσότερα από 4000 αεροδρόμια (δελτία METAR και TAF).

Οι διαθέσιμοι σταθμοί απεικονίζονται στο χάρτη με κίτρινες και κόκκινες κουκκίδες.

Μετακινήστε το ποντίκι πάνω από τις κουκκίδες για να δείτε το όνομα του σταθμού.

Στη συνέχεια, κάντε κλικ για να δείτε τις μετεωρολογικές αναφορές και τις προγνώσεις καιρού.

Για να αλλάξετε το χάρτη: κάντε κλικ στα πράσινα κουμπιά με τον μαύρο σταυρό για να ζουμάρετε, στο πράσινο κουμπί με την παύλα για να αφαιρέσετε το ζουμ ή στα πράσινα βέλη για να αντιπαραβάλλετε χάρτες.


METAR-TAF: